Location: Bastelaar
(51.0950°N, 3.8602°E)
Time: 05:45:32
(UTC+00:00)

SPOT 1/Viking Rocket - Pass Details

Date: 18 November 2025
Orbit: 773 x 789 km, 98.2° (Epoch: 16 December)

Event Time Altitude Azimuth Distance (km) Brightness Sun altitude
Rises 16:40:41 0° 130° (SE) 3,265 6.5 -7.6°
Reaches altitude 10° 16:43:15 10° 119° (ESE) 2,343 5.6 -8.0°
Maximum altitude 16:47:38 29° 61° (ENE) 1,418 4.3 -8.6°
Drops below altitude 10° 16:52:04 10° 3° (N) 2,363 5.8 -9.3°
Sets 16:54:39 0° 353° (N) 3,298 6.7 -9.7°
